星链-33794 (STARLINK-33794)

导读

STARLINK-33794是美国SpaceX公司星链星座的成员卫星,于2025年5月4日发射入轨。星链项目旨在构建低轨巨型卫星星座,为全球提供高速宽带互联网服务,尤其改善偏远地区网络覆盖。作为星链规模化部署的一部分,该卫星运行于近地轨道,依靠星座组网实现全球信号覆盖,进一步扩充了星链系统的服务能力,推动全球卫星互联网基础设施建设。

Basic Information
目录编号:
63820
目录名称:
STARLINK-33794
国际标识:
2025-092S
轨道中心:
EARTH
卫星名称:
星链-33794
卫星全名:
星链-33794 (STARLINK-33794)
卫星状态:
在轨 (已飞行495 天)
发射日期:
2025-05-04 UTC
国别 :
美国 (US)
星等 :
--
This satellite is enrolled in the Space Conjunction Data Service (SCDS) and the current flight risk assessment level is: High Risk
Orbit Information
数据来源 国际轨道数据
星历时间: 2026-09-11T14:19:54+0800
10小时前
查看轨道信息
半长轴: 6861.151km
偏心率: 0.0002213
轨道倾角: 43.002°
近地点辐角 256.943°
升交点赤经 204.707°
平近点角 103.118°
近地点: 481.495km
远地点: 484.533km
周期: 94.266分钟
每日圈数: 15.275918
Detailed Information
固有亮度:
5
最大亮度:
2.5
卫星平台:
Starlink V1.0
覆盖范围:
全球
运营商:
太空探索技术公司
运营商所在国:
美国
制造商(研发单位):
太空探索技术公司
制造商所在国:
美国
使用方式:
暂无
Satellite Introduction
Starlink 计划是 SpaceX 推出的全球卫星互联网项目,通过发射低轨道卫星,为全球尤其是偏远地区提供高速、低延迟的互联网服务。自 2019 年起,Starlink 已部署数千颗卫星,旨在缩小全球数字鸿沟,推动互联网普及。该项目还为军事、航空等行业提供通信支持,带来广泛经济效益。
2D Orbit Map
3D Orbit Map
Orbit Altitude Analysis Chart
Orbit Inclination Analysis Chart
Orbit Comprehensive Analysis Chart
View Comprehensive Chart
Conjunction Data List
Event ID Objects TCA Miss Dist (km) Collision Risk Probability Collision Risk Index (CRI) Action
CDM_260912-062506-382006-783722
2026-09-12T
06:25:39+0000
0.534 km
远距离
1.174927E-4 高风险 0.76
CDM_260914-005405-789506-382021
2026-09-14T
00:54:39+0000
0.607 km
远距离
9.813962E-5 中风险 0.75
CDM_260912-201706-382006-681621
2026-09-12T
20:17:05+0000
0.595 km
远距离
6.803158E-5 中风险 0.72
CDM_260913-041906-184606-382021
2026-09-13T
04:19:04+0000
0.704 km
远距离
3.947185E-5 中风险 0.67
CDM_260912-181106-382006-783721
2026-09-12T
18:11:47+0000
0.885 km
远距离
2.579498E-5 中风险 0.63
CDM_260912-100506-382006-681621
2026-09-12T
10:05:07+0000
0.954 km
远距离
1.511333E-5 中风险 0.59
CDM_260912-113906-382006-681621
2026-09-12T
11:39:16+0000
1.255 km
极远距离
5.890203E-6 低风险 0.5
CDM_260914-022805-789506-382021
2026-09-14T
02:28:49+0000
1.628 km
极远距离
3.928119E-6 低风险 0.47
CDM_260912-045106-382006-783722
2026-09-12T
04:51:30+0000
1.547 km
极远距离
3.902122E-6 低风险 0.47
CDM_260912-194506-382006-783721
2026-09-12T
19:45:56+0000
1.586 km
极远距离
3.608916E-6 低风险 0.46
Miss Distance Evolution Trend with All Objects
Collision Probability Evolution Trend with All Objects